Fort Polk, LA

12:03 PM CDT on July 24, 2017 (GMT -0500)
Fort Polk

Weather History for KAQV - May, 2013

Change the Weather History Date:

Sunday, May 5, 2013

  Actual Average (KPOE) Record (KPOE)
Temperature  
Mean Temperature 54 °F -  
Max Temperature 66 °F 80 °F 91 °F (2002)
Min Temperature 42 °F 61 °F 44 °F (2013)
Degree Days  
Heating Degree Days 11    
Growing Degree Days 4 (Base 50)    
Moisture  
Dew Point 40 °F    
Average Humidity 63    
Maximum Humidity 93    
Minimum Humidity 36    
Precipitation  
Precipitation 0.00 in - - ()
Sea Level Pressure  
Sea Level Pressure 30.01 in    
Wind  
Wind Speed 4 mph (North)    
Max Wind Speed 9 mph    
Max Gust Speed 20 mph    
Visibility 10 miles    
Events      
Averages and records for this station are not official NWS values.
T = Trace of Precipitation, MM = Missing Value Source: NWS Daily Summary

Daily Weather History Graph

Daily Weather History Graph

Search for Another Location

Airport or City:

Trip Planner

Search our weather history database for the weather conditions in past years. The results will help you decide how hot, cold, wet, or windy it might be!

Date:

Astronomy

May. 05, 2013 Rise Set
Actual Time 6:24 AM CDT 7:55 PM CDT
Civil Twilight 5:58 AM CDT 8:21 PM CDT
Nautical Twilight 5:27 AM CDT 8:53 PM CDT
Astronomical Twilight 4:54 AM CDT 9:25 PM CDT
Moon 3:39 AM CDT (5/5) 4:09 PM CDT (5/5)
Length of Visible Light 14h 23m
Length of Day
13h 31m
Waning Crescent, 18% of the Moon is Illuminated
May 5
Waning Crescent
May 9
New
May 17
First Quarter
May 24
Full
May 31
Last Quarter

Hourly Weather History & Observations

Time (CDT) Temp. Dew Point Humidity Pressure Visibility Wind Dir Wind Speed Gust Speed Precip Events Conditions
12:56 AM 53.1 °F 37.9 °F 57% 29.95 in 10.0 mi North 3.5 mph - N/A   Clear
1:56 AM 51.1 °F 37.0 °F 59% 29.95 in 10.0 mi North 5.8 mph - N/A   Clear
2:56 AM 48.9 °F 37.0 °F 64% 29.95 in 10.0 mi North 3.5 mph - N/A   Clear
3:56 AM 45.0 °F 39.0 °F 80% 29.95 in 10.0 mi Calm Calm - N/A   Clear
4:56 AM 43.0 °F 39.9 °F 89% 29.96 in 10.0 mi Calm Calm - N/A   Clear
5:56 AM 42.1 °F 39.0 °F 89% 29.98 in 10.0 mi Calm Calm - N/A   Clear
6:56 AM 43.0 °F 39.9 °F 89% 30.00 in 8.0 mi Calm Calm - N/A   Clear
7:56 AM 46.9 °F 39.0 °F 74% 30.02 in 10.0 mi Variable 4.6 mph - N/A   Clear
8:56 AM 51.1 °F 37.9 °F 61% 30.04 in 10.0 mi Variable 6.9 mph 17.3 mph N/A   Clear
9:56 AM 55.0 °F 37.0 °F 51% 30.04 in 10.0 mi Variable 5.8 mph 16.1 mph N/A   Partly Cloudy
10:56 AM 54.0 °F 36.0 °F 51% 30.06 in 10.0 mi Variable 5.8 mph 19.6 mph N/A   Mostly Cloudy
11:56 AM 59.0 °F 37.0 °F 44% 30.05 in 10.0 mi NNE 9.2 mph 18.4 mph N/A   Scattered Clouds
12:56 PM 62.1 °F 37.9 °F 41% 30.04 in 10.0 mi Variable 4.6 mph - N/A   Partly Cloudy
1:56 PM 63.0 °F 37.9 °F 40% 30.03 in 10.0 mi NW 9.2 mph - N/A   Scattered Clouds
2:56 PM 64.9 °F 37.9 °F 37% 30.01 in 10.0 mi Variable 5.8 mph - N/A   Clear
3:56 PM 66.0 °F 37.9 °F 36% 29.99 in 10.0 mi Variable 6.9 mph 17.3 mph N/A   Clear
4:56 PM 64.9 °F 39.0 °F 39% 29.99 in 10.0 mi Variable 6.9 mph 16.1 mph N/A   Partly Cloudy
5:56 PM 64.9 °F 39.0 °F 39% 29.99 in 10.0 mi North 9.2 mph - N/A   Partly Cloudy
6:56 PM 63.0 °F 39.0 °F 41% 30.00 in 10.0 mi Calm Calm - N/A   Clear
7:56 PM 57.0 °F 45.0 °F 64% 30.01 in 10.0 mi Calm Calm - N/A   Clear
8:56 PM 51.1 °F 46.9 °F 86% 30.03 in 10.0 mi Calm Calm - N/A   Clear
9:56 PM 48.9 °F 46.0 °F 90% 30.04 in 10.0 mi Calm Calm - N/A   Clear
10:56 PM 46.9 °F 45.0 °F 93% 30.05 in 10.0 mi Calm Calm - N/A   Clear
11:56 PM 46.9 °F 44.1 °F 90% 30.04 in 10.0 mi Calm Calm - N/A   Clear